Hourly Weather Gold Coast

Today, 7 May, Friday

Time Temperature Precipitation Wind Pressure Humidity
00:00 +15°C° 0 mm 2 mps 753 mmHg 92%
01:00 +15°C° 0 mm 2 mps 753 mmHg 94%
02:00 +15°C° 0 mm 2 mps 753 mmHg 94%
03:00 +15°C° 0 mm 2 mps 753 mmHg 94%
04:00 +14°C° 0 mm 2 mps 752 mmHg 93%
05:00 +15°C° 0 mm 2 mps 753 mmHg 92%
06:00 +14°C° 0 mm 3 mps 753 mmHg 91%
07:00 +14°C° 0 mm 3 mps 753 mmHg 89%
08:00 +18°C° 0 mm 3 mps 753 mmHg 80%
09:00 +20°C° 0 mm 3 mps 754 mmHg 71%
10:00 +24°C° 0 mm 3 mps 754 mmHg 61%
11:00 +23°C° 0 mm 4 mps 753 mmHg 60%
12:00 +25°C° 0 mm 4 mps 753 mmHg 58%
13:00 +26°C° 0 mm 4 mps 752 mmHg 57%
14:00 +25°C° 0 mm 4 mps 752 mmHg 61%
15:00 +25°C° 0 mm 3 mps 752 mmHg 66%
16:00 +24°C° 0 mm 3 mps 752 mmHg 71%
17:00 +22°C° 0 mm 3 mps 753 mmHg 75%
18:00 +20°C° 0 mm 3 mps 754 mmHg 79%
19:00 +19°C° 0 mm 3 mps 754 mmHg 83%
20:00 +18°C° 0 mm 3 mps 755 mmHg 83%
21:00 +18°C° 0 mm 3 mps 755 mmHg 83%
22:00 +18°C° 0 mm 3 mps 755 mmHg 84%
23:00 +18°C° 0 mm 3 mps 755 mmHg 84%

Tomorrow, 8 May, Saturday

Time Temperature Precipitation Wind Pressure Humidity
00:00 +17°C° 0 mm 3 mps 755 mmHg 85%
01:00 +17°C° 0 mm 3 mps 755 mmHg 85%
02:00 +17°C° 0 mm 3 mps 755 mmHg 86%
03:00 +17°C° 0 mm 3 mps 755 mmHg 87%
04:00 +17°C° 0 mm 3 mps 755 mmHg 88%
05:00 +17°C° 0 mm 3 mps 755 mmHg 88%
06:00 +17°C° 0 mm 2 mps 756 mmHg 88%
07:00 +17°C° 0 mm 2 mps 757 mmHg 87%
08:00 +19°C° 0 mm 2 mps 757 mmHg 78%
09:00 +23°C° 0 mm 2 mps 757 mmHg 68%
10:00 +26°C° 0 mm 1 mps 757 mmHg 59%
11:00 +26°C° 0 mm 1 mps 756 mmHg 56%
12:00 +27°C° 0 mm 2 mps 756 mmHg 54%
13:00 +27°C° 0 mm 2 mps 755 mmHg 51%
14:00 +27°C° 0 mm 2 mps 755 mmHg 56%
15:00 +26°C° 0 mm 2 mps 755 mmHg 62%
16:00 +25°C° 0 mm 2 mps 755 mmHg 67%
17:00 +24°C° 0 mm 2 mps 756 mmHg 73%
18:00 +21°C° 0 mm 2 mps 757 mmHg 80%
19:00 +20°C° 0 mm 1 mps 757 mmHg 86%
20:00 +19°C° 0 mm 2 mps 758 mmHg 88%
21:00 +19°C° 0 mm 2 mps 758 mmHg 89%
22:00 +18°C° 0 mm 2 mps 758 mmHg 91%
23:00 +18°C° 0 mm 2 mps 758 mmHg 90%

Day after tomorrow, 9 May, Sunday

Time Temperature Precipitation Wind Pressure Humidity
00:00 +18°C° 0 mm 2 mps 758 mmHg 89%
01:00 +19°C° 0 mm 1 mps 758 mmHg 89%
02:00 +18°C° 0 mm 2 mps 757 mmHg 88%
03:00 +18°C° 0 mm 2 mps 757 mmHg 87%
04:00 +18°C° 0 mm 2 mps 757 mmHg 86%
05:00 +19°C° 0 mm 2 mps 758 mmHg 86%
06:00 +20°C° 0 mm 1 mps 758 mmHg 85%
07:00 +20°C° 0 mm 1 mps 758 mmHg 84%
08:00 +22°C° 0 mm 1 mps 759 mmHg 77%
09:00 +24°C° 0 mm 1 mps 759 mmHg 69%
10:00 +26°C° 0 mm 1 mps 759 mmHg 61%
11:00 +27°C° 0 mm 1 mps 758 mmHg 57%
12:00 +28°C° 0 mm 1 mps 757 mmHg 52%
13:00 +28°C° 0 mm 2 mps 757 mmHg 47%
14:00 +27°C° 0 mm 2 mps 757 mmHg 54%
15:00 +26°C° 0 mm 2 mps 757 mmHg 62%
16:00 +25°C° 0 mm 2 mps 757 mmHg 69%
17:00 +23°C° 0.1 mm 2 mps 757 mmHg 77%
18:00 +22°C° 0.1 mm 1 mps 758 mmHg 85%
19:00 +20°C° 0.1 mm 1 mps 758 mmHg 92%
20:00 +20°C° 0.2 mm 1 mps 758 mmHg 93%
21:00 +19°C° 0.2 mm 1 mps 759 mmHg 94%
22:00 +19°C° 0.2 mm 1 mps 759 mmHg 95%
23:00 +19°C° 0.1 mm 1 mps 759 mmHg 95%

10 May, Monday

Time Temperature Precipitation Wind Pressure Humidity
00:00 +19°C° 0.1 mm 1 mps 758 mmHg 95%
01:00 +18°C° 0.1 mm 1 mps 758 mmHg 95%
02:00 +18°C° 0 mm 1 mps 758 mmHg 95%
03:00 +18°C° 0 mm 1 mps 758 mmHg 95%
04:00 +18°C° 0 mm 1 mps 758 mmHg 95%
05:00 +18°C° 0.1 mm 1 mps 758 mmHg 94%
06:00 +18°C° 0.1 mm 1 mps 758 mmHg 94%
07:00 +18°C° 0.1 mm 1 mps 759 mmHg 94%
08:00 +21°C° 0 mm 1 mps 759 mmHg 83%
09:00 +23°C° 0 mm 1 mps 759 mmHg 73%
10:00 +26°C° 0 mm 1 mps 759 mmHg 63%
11:00 +27°C° 0 mm 2 mps 758 mmHg 58%
12:00 +27°C° 0 mm 2 mps 758 mmHg 52%
13:00 +28°C° 0 mm 2 mps 757 mmHg 47%
14:00 +28°C° 0 mm 2 mps 757 mmHg 53%
15:00 +27°C° 0 mm 2 mps 757 mmHg 58%
16:00 +27°C° 0 mm 2 mps 757 mmHg 63%
17:00 +25°C° 0 mm 2 mps 757 mmHg 70%
18:00 +23°C° 0 mm 1 mps 758 mmHg 77%
19:00 +21°C° 0 mm 1 mps 758 mmHg 84%
20:00 +20°C° 0 mm 1 mps 759 mmHg 84%
21:00 +20°C° 0 mm 1 mps 759 mmHg 84%
22:00 +19°C° 0 mm 1 mps 759 mmHg 85%
23:00 +19°C° 0.1 mm 1 mps 759 mmHg 84%

11 May, Tuesday

Time Temperature Precipitation Wind Pressure Humidity
00:00 +19°C° 0.1 mm 1 mps 759 mmHg 83%
01:00 +19°C° 0.1 mm 1 mps 759 mmHg 82%
02:00 +18°C° 0 mm 1 mps 759 mmHg 82%
03:00 +18°C° 0 mm 1 mps 759 mmHg 81%
04:00 +18°C° 0 mm 1 mps 759 mmHg 80%
05:00 +18°C° 0 mm 1 mps 759 mmHg 80%
06:00 +18°C° 0 mm 1 mps 760 mmHg 79%
07:00 +19°C° 0 mm 1 mps 760 mmHg 79%
08:00 +21°C° 0 mm 1 mps 760 mmHg 70%
09:00 +24°C° 0 mm 1 mps 760 mmHg 62%
10:00 +27°C° 0 mm 1 mps 760 mmHg 53%
11:00 +27°C° 0 mm 1 mps 760 mmHg 54%
12:00 +27°C° 0 mm 2 mps 760 mmHg 56%
13:00 +27°C° 0 mm 2 mps 759 mmHg 57%
14:00 +26°C° 0.1 mm 3 mps 759 mmHg 63%
15:00 +24°C° 0.1 mm 3 mps 759 mmHg 69%
16:00 +22°C° 0.1 mm 3 mps 760 mmHg 76%
17:00 +21°C° 0.2 mm 3 mps 760 mmHg 81%
18:00 +19°C° 0.2 mm 3 mps 760 mmHg 87%
19:00 +18°C° 0.2 mm 3 mps 761 mmHg 93%
20:00 +18°C° 0.1 mm 3 mps 761 mmHg 94%
21:00 +18°C° 0.1 mm 3 mps 761 mmHg 95%
22:00 +17°C° 0.1 mm 3 mps 761 mmHg 96%
23:00 +17°C° 0 mm 3 mps 761 mmHg 96%

12 May, Wednesday

Time Temperature Precipitation Wind Pressure Humidity
00:00 +17°C° 0 mm 3 mps 761 mmHg 96%
01:00 +17°C° 0 mm 4 mps 761 mmHg 96%
02:00 +17°C° 0.1 mm 4 mps 761 mmHg 97%
03:00 +17°C° 0.1 mm 4 mps 761 mmHg 97%
04:00 +15°C° 0.1 mm 4 mps 762 mmHg 97%
05:00 +17°C° 0.1 mm 4 mps 762 mmHg 97%
06:00 +16°C° 0.1 mm 5 mps 762 mmHg 96%
07:00 +16°C° 0.1 mm 5 mps 762 mmHg 96%
08:00 +19°C° 0.1 mm 5 mps 762 mmHg 88%
09:00 +20°C° 0.1 mm 5 mps 763 mmHg 81%
10:00 +22°C° 0.1 mm 5 mps 763 mmHg 73%
11:00 +22°C° 0.2 mm 6 mps 762 mmHg 73%
12:00 +22°C° 0.2 mm 6 mps 762 mmHg 73%
13:00 +23°C° 0.2 mm 6 mps 761 mmHg 74%
14:00 +22°C° 0.3 mm 5 mps 761 mmHg 77%
15:00 +21°C° 0.3 mm 5 mps 761 mmHg 80%
16:00 +21°C° 0.3 mm 5 mps 761 mmHg 84%
17:00 +20°C° 0.1 mm 5 mps 762 mmHg 86%
18:00 +19°C° 0.1 mm 5 mps 762 mmHg 89%
19:00 +19°C° 0.1 mm 5 mps 762 mmHg 92%
20:00 +19°C° 0.2 mm 5 mps 762 mmHg 92%
21:00 +17°C° 0.2 mm 5 mps 762 mmHg 93%
22:00 +17°C° 0.2 mm 5 mps 762 mmHg 93%
23:00 +19°C° 0.2 mm 5 mps 762 mmHg 93%
Show more